Torna al catalogo

SL-16 DEB

AttivoLEO
NORAD 22371·DEBRIS·🇷🇺 Russia

Lanciato Dec 25, 1992 da Baikonur Cosmodrome

Loading…

Prossimi Passaggi (prossime 24 ore)

TLE

AggiornatoSource: Space-Track

Epoca: Sep 14, 2026, 14:42 UTC

1 22371U 92093BL  26257.61251439  .00000068  00000-0  80369-4 0  9995
2 22371  71.1691  21.7805 0109516 133.1707 239.1379 13.93927729711846

Traccia SL-16 DEB in tempo reale con AllMySat

Download on the App Store